• Join FlightAware (Why Join?)
  • Login
  • US Flag GB Flag 
11:28 EDT


 

Airport Tracker/Info


-or-


 

Live Flight TrackerFlight Track Log ✈ BOE521 ✈ 06-Sep-2013 ✈ KPAE - KPDX

Flight Track Log - Related Links

Times and Time Zones

All times are in EDT time to prevent confusion due to time zone crossing. See the BOE521 flight status page for this flight to view local times or setup timezone preferences in your user account.

Time Position Orientation Groundspeed Altitude Reporting Facility
EDT Latitude Longitude Course Direction KTS MPH feet Rate Location/Type
16:10 47.8919 -122.2878 183° South 182 209 1,900  Level Seattle Center
16:11 47.8444 -122.2919 183° South 226 260 3,800 3,540 Climbing Seattle Center
16:12 47.7864 -122.3908 229° Southwest 284 327 8,700 2,940 Climbing Seattle Center
16:13 47.7083 -122.3761 173° South 282 325 9,800 1,860 Climbing Seattle Center
16:14 47.6183 -122.3544 171° South 339 390 12,600 2,640 Climbing Seattle Center
16:15 47.5089 -122.3278 171° South 396 456 15,200 2,640 Climbing Seattle Center
16:16 47.3964 -122.3092 174° South 454 522 18,000 2,820 Climbing Seattle Center
16:17 47.2331 -122.3106 180° South 491 565 21,000 1,440 Climbing Seattle Center
16:18 47.0922 -122.3108 180° South 504 580 21,000  Level Seattle Center
16:19 46.9528 -122.3111 180° South 507 583 21,000 -360 Level Seattle Center
16:20 46.8144 -122.3094 180° South 505 581 20,300 -840 Descending Seattle Center
16:21 46.6867 -122.3103 180° South 470 541 19,400 -900 Descending Seattle Center
16:22 46.5675 -122.3114 180° South 438 504 18,500 -1,260 Descending Seattle Center
16:23 46.4553 -122.3114 180° South 409 471 16,900 -1,680 Descending Seattle Center
16:24 46.3461 -122.3111 180° South 398 458 15,200 -1,980 Descending Seattle Center
16:24 46.3272 -122.3094 177° South 396 456 14,800 -1,920 Descending Seattle Center
16:26 46.2011 -122.3406 190° South 368 423 12,800 -1,320 Descending Seattle Center
16:26 46.1433 -122.3747 202° Southwest 353 406 12,200 -1,140 Descending Seattle Center
16:27 46.1117 -122.3903 199° South 329 379 11,700 -1,800 Descending Seattle Center
16:27 46.0633 -122.4197 203° Southwest 315 362 10,400 -2,160 Descending Seattle Center
16:28 46.0239 -122.4394 199° South 296 341 9,300 -2,220 Descending Seattle Center
16:28 45.9869 -122.4608 202° Southwest 297 342 8,200 -1,500 Descending Seattle Center
16:29 45.9481 -122.4831 202° Southwest 290 334 7,800 -1,200 Descending Seattle Center
16:29 45.9003 -122.5114 202° Southwest 284 327 7,000 -1,020 Descending Seattle Center
16:30 45.8678 -122.5256 197° South 265 305 6,700 -840 Descending Seattle Center
16:30 45.8347 -122.5431 200° South 259 298 6,200 -660 Descending Seattle Center
16:31 45.8033 -122.5614 202° Southwest 217 250 6,000 -240 Descending Seattle Center
16:31 45.7775 -122.5789 205° Southwest 234 269 6,000  Level Seattle Center
16:32 45.7425 -122.5711 171° South 237 273 6,000 -240 Level Seattle Center
16:32 45.7239 -122.5361 127° Southeast 250 288 5,800 -900 Descending Seattle Center
16:33 45.7050 -122.5028 129° Southeast 234 269 5,200 -840 Descending Seattle Center
16:33 45.6872 -122.4617 122° Southeast 237 273 5,000 -240 Descending Seattle Center
16:34 45.6681 -122.4283 129° Southeast 231 266 5,000  Level Seattle Center
16:34 45.6436 -122.3928 135° Southeast 235 270 5,000  Level Seattle Center
16:35 45.6231 -122.3667 138° Southeast 215 247 5,000 -300 Level Seattle Center
16:35 45.6022 -122.3331 132° Southeast 223 257 4,700 -900 Descending Seattle Center
16:36 45.5831 -122.3089 139° Southeast 209 241 4,200 -720 Descending Seattle Center
16:36 45.5561 -122.2900 154° Southeast 217 250 4,000 -420 Descending Seattle Center
16:37 45.5331 -122.2864 174° South 196 226 3,800 -1,020 Descending Seattle Center
16:38 45.5056 -122.2817 173° South 195 224 3,000 -840 Descending Seattle Center
16:38 45.4867 -122.2933 203° Southwest 177 204 3,000  Level Seattle Center
16:39 45.4836 -122.3319 264° West 177 204 3,000  Level Seattle Center
16:39 45.4883 -122.3544 287° West 181 208 3,000 -120 Level Seattle Center
16:40 45.5072 -122.3967 303° West 177 204 2,900 -300 Descending Seattle Center
16:40 45.5142 -122.4178 295° West 194 223 2,700 -1,020 Descending Seattle Center
16:41 45.5342 -122.4611 303° West 185 213 1,900 -1,140 Descending Seattle Center
16:41 45.5414 -122.4867 292° West 183 211 1,600 -900 Descending Seattle Center
16:42 45.5597 -122.5269 303° West 176 203 1,000 -660 Descending Seattle Center
16:42 45.5581 -122.5261 161° South 119 137 1,000 -780 Level Seattle Center
16:43 45.5775 -122.5800 297° West 136 157 100 -840 Descending Seattle Center